Orbital Elements at Epoch 2459200.5 (2020-Dec-17.0) TDB
Reference: JPL 27 (heliocentric ecliptic J2000)
Element | Value | Uncertainty (1-sigma) | Units |
e | .1854762473784437 | 1.156e-08 | |
a | 2.311309062921848 | 6.6886e-09 | au |
q | 1.882616131399316 | 2.6353e-08 | au |
i | 26.43527110130983 | 7.5401e-07 | deg |
node | 338.0191251026858 | 1.3119e-06 | deg |
peri | 304.5662150965803 | 3.191e-06 | deg |
M | 62.10545230415246 | 3.5002e-06 | deg |
tp | 2458979.082119883424 (2020-May-09.58211988) | 1.2347e-05 | TDB |
period | 1283.469226688777 3.51 | 5.5713e-06 1.525e-08 | d yr |
n | .2804897791969381 | 1.2176e-09 | deg/d |
Q | 2.740001994444379 | 7.9292e-09 | au |
|
| | Orbit Determination Parameters
Additional Information
|